Regional Weather Roundup
Issued by NWS Wakefield, VA

Home | Current Version | Previous Version | Graphics & Text | Print | Product List | Glossary On
Versions: 1 2 3 4 5 6 7 8 9 10 11 12 13 14 15 16 17 18 19 20 21 22 23 24 25 26 27 28 29 30 31 32 33 34 35 36 37 38 39 40 41 42 43 44 45 46 47 48 49 50
000
ASUS41 KAKQ 201515
RWRAKQ

REGIONAL WEATHER ROUNDUP
NATIONAL WEATHER SERVICE WAKEFIELD VA
1100 AM EDT WED SEP 20 2017

Note: "fair" indicates few or no clouds below 12,000 feet with no
significant weather and/or obstructions to visibility. * = Denotes
station may not report precipitation (e.g., rain,snow,etc.),
thunder or fog.

VAZ042-051-052>054-056-201600-
NORTHERN VIRGINIA

CITY           SKY/WX    TMP DP  RH WIND       PRES   REMARKS
WASH NATIONAL  CLOUDY    77  65  66 NW12      29.98F
DULLES         MOSUNNY   78  64  61 NW10      30.00S
FORT BELVOIR   SUNNY     80  63  55 NW12      29.97F
QUANTICO       PTSUNNY   81  65  58 N9        29.99S
FREDERICKSBRG* SUNNY     81  65  58 N6        29.98S
STAFFORD*      SUNNY     79  64  60 NW8       30.02F
WARRENTON      SUNNY     82  60  47 N8        29.99F
CULPEPER*      SUNNY     80  67  64 N3        30.01S
MANASSAS*      SUNNY     80  65  59 N9        30.00S
LEESBURG*      SUNNY     79  66  65 N9        30.01S
WINCHESTER     SUNNY     75  63  64 NW3       30.02F
FRONT ROYAL*   SUNNY     75  64  69 CALM      30.02S
LURAY*         SUNNY     73  64  73 S5        30.04S
$$

VAZ048-049-060>072-079>083-201600-
CENTRAL AND SOUTH CENTRAL VIRGINIA

CITY           SKY/WX    TMP DP  RH WIND       PRES   REMARKS
RICHMOND       MOSUNNY   82  64  54 NW8       29.99S
CHESTERFIELD*  NOT AVBL
PETERSBURG*    SUNNY     78  63  59 W5        30.00F
HANOVER        SUNNY     81  64  56 NW5       30.00S
TAPPAHANNOCK*  SUNNY     81  57  44 W6        29.99S
QUINTON*       FAIR      79  66  63 W7        29.98S
CHARLOTTSVILLE SUNNY     80  67  64 VRB3      30.01S
GORDONSVILLE*  SUNNY     81  66  61 SW6       30.00S
ORANGE*        SUNNY     81  64  57 CALM      30.00F
LOUISA*        SUNNY     81  64  57 W5        30.01R
BUMPASS*       NOT AVBL
FARMVILLE*     SUNNY     81  67  61 CALM      30.01S HAZE
CREWE*         FAIR      80  66  62 CALM      30.01F
FORT PICKETT*  FAIR      80  67  63 NW3       30.02S
CHASE CITY*    FAIR      78  69  76 CALM      30.02F
CLARKSVILLE*   FAIR      77  70  78 CALM      30.02S
SOUTH HILL*    SUNNY     80  68  66 CALM      30.07S
LAWRENCEVILLE* FAIR      80  65  59 MISG      30.01F
EMPORIA*       SUNNY     79  64  61 NW6       30.01F
$$

VAZ088>098-201600-
SOUTHEAST VIRGINIA

CITY           SKY/WX    TMP DP  RH WIND       PRES   REMARKS
NORFOLK        PTSUNNY   78  67  68 W8        29.96S
VIRGINIA BEACH MOSUNNY   78  64  61 NW9G18    29.95S
NORFOLK NAVAL  MOSUNNY   78  67  68 W9        29.98S
WEST POINT*    CLOUDY    77  64  65 NW3       29.99S
SALUDA*        CLOUDY    74  68  79 W6        29.97R
NEWPORT NEWS   MOSUNNY   79  66  64 NW6       29.97F
LANGLEY AFB    MOSUNNY   79  68  69 NW9       29.96F
FORT EUSTIS    MOSUNNY   80  67  66 NW8       29.96S
WILLIAMSBURG*  SUNNY     81  68  65 NW8       29.98F
HR EXEC AP*    FAIR      80  68  66 W8        29.98F
FRANKLIN*      SUNNY     79  66  64 W6        29.99F
US460-WAKEFLD  SUNNY     80  67  64 VRB5      29.99F
$$

VAZ020-022-025-037-045-201600-
WEST CENTRAL AND SOUTHWEST VIRGINIA

CITY           SKY/WX    TMP DP  RH WIND       PRES   REMARKS
STAUNTON*      SUNNY     73  64  73 CALM      30.08S
WAYNESBORO*    SUNNY     76  67  74 CALM      30.07S
HOT SPRINGS VA SUNNY     67  57  70 W7        30.18S
LYNCHBURG      SUNNY     78  65  63 SW5       30.04S
DANVILLE       SUNNY     79  69  71 NW5       30.03F
SOUTH BOSTON*  FAIR      79  68  68 N3        30.02F
MARTINSVILLE   PTSUNNY   74  65  74 CALM      30.08S
ROANOKE        PTSUNNY   79  65  62 W3        30.08F
BLACKSBURG     SUNNY     74  64  72 W5        30.15S
DUBLIN*        SUNNY     76  65  69 SW6       30.13F
MARION*        SUNNY     74  61  63 SW6       30.18S
HILLSVILLE*    MOSUNNY   71  57  60 CALM      30.15S
RICHLANDS*     PTSUNNY   70  62  75 W6        30.17S
WISE*          CLOUDY    73  61  64 W3        30.18R
ABINGDON*      CLOUDY    76  64  65 SW5       30.15R
$$

MDZ021>025-VAZ099-100-201600-
SOUTHERN MARYLAND AND THE DELMARVA PENINSULA

CITY           SKY/WX    TMP DP  RH WIND       PRES   REMARKS
PATUXENT RIVER PTSUNNY   78  66  66 NW15      29.95S
BAY BRIDGE APT MOSUNNY   79  68  69 NW9       29.95S
LEONARDTOWN    CLOUDY    75  64  69 NW6       29.97F
DOVER          SUNNY     78  78 100 N18       29.89S
GEORGETOWN     MOSUNNY   79  66  64 N7G21     29.91S
EASTON         PTSUNNY   77  64  65 NW12      29.98R
CAMBRIDGE      SUNNY     79  66  65 NW13      29.93F
SALISBURY      SUNNY     79  68  69 NW12      29.91S
OCEAN CITY     MOSUNNY   79  69  71 N10       29.90S
WALLOPS ISLAND MOSUNNY   79  69  71 NW12      29.91F
ACCOMACK*      MOSUNNY   77  69  75 NW17      29.94R
$$

NCZ012>017-030>032-201600-
NORTH CENTRAL AND EASTERN NORTH CAROLINA

CITY           SKY/WX    TMP DP  RH WIND       PRES   REMARKS
ROANOKE RAPIDS FAIR      79  66  65 MISG      30.01S
RALEIGH        MOSUNNY   81  69  67 SW10      30.03F
ELIZABETH CITY SUNNY     81  69  67 NW12      29.98S
AHOSKIE*         N/A     78  68  69 CALM      30.00F
EDENTON*       SUNNY     81  67  61 CALM      29.99F
CURRITUCK*     MOSUNNY   79  67  66 NW6       29.97F
KILL DEVIL HLS MOSUNNY   74  66  74 W3        29.96F
MANTEO         SUNNY     76  66  71 NW10G16   29.98F
CAPE HATTERAS  SUNNY     80  70  71 NW8       29.98F
TARBORO*       NOT AVBL
GOLDSBORO      SUNNY     82  73  73 W8        30.01S
WASHINGTON     SUNNY     82  68  62 W8        30.01F
GREENVILLE     SUNNY     81  68  65 W6        30.03F
NEW BERN       SUNNY     83  69  62 W5        30.02F
WILMINGTON     SUNNY     84  67  56 NW9       30.03S
$$

VAZ048-201600-
ELSEWHERE

CITY           SKY/WX    TMP DP  RH WIND       PRES   REMARKS
HARRISBURG PA  SUNNY     77  64  64 W12       29.97F
BALTIMORE      CLOUDY    76  66  71 NW6       29.96S
ANNAPOLIS      CLOUDY    79  67  66 NW9       29.95S
ANDREWS AFB    MOSUNNY   76  63  63 NW10      29.96F
PHILADELPHIA   MOSUNNY   79  64  60 N13G22    29.91S
HENDERSON NC   SUNNY     76  66  70 CALM      30.02F
GREENSBORO     PTSUNNY   80  68  66 CALM      30.05S
ROCKY MOUNT    SUNNY     81  70  69 W7        30.01F
$$

VAZ100-201600-
MARINE

STATION/POSITION TIME  TEMP    WIND        PRES    WAVE   SWELL
                       AIR SEA DIR/SP/G            HT/PER HT/PER
                 (UTC) (F)     (DEG/KT/KT) (MB)    (FT/S) (FT/S)
BRANDYWINE LGT   1436   74     360/ 20/ 22 1012.5R
CAPE MAY NJ      1448   75 73  350/ 13/ 18 1011.5R
LEWES DE         1448   73 72  330/ 13/ 15 1012.4R
15NM E FENWICK I 1450   72 71  320/ 16/ 19 1011.8R   8/10   7/10
OCEAN-CITY-INLET 1448   75 73   10/ 11/ 14 1012.8R
WACHAPREAGUE VA  1448   79 73  310/  4/  8 1013.4S
THOMAS POINT MD  1500   76 75  310/  9/ 10   N/A
GOOSES REEF MD   1500   75 74  330/ 10/ 14 1015.0    0
COVE POINT MD    1448   74     340/ 14/ 18 1014.8R
SOLOMONS ISLAND  1448   76 76  310/  6/ 11 1013.9R
BISHOPS HEAD MD  1448   78 74  320/ 11/ 13 1013.9R
PINEY POINT MD   1448          350/ 11/ 12   N/A
POTOMAC MD       1500   75 75  330/ 12/ 14 1013.2    1/ 3
CAMBRIDGE MD     1448   78 75              1014.6R
LEWISETTA VA     1448   76 75  340/ 10/ 13 1014.2F
RAPPAHANNOCK LGT 1448          290/ 12/ 14 1014.8R
STINGRAY PT      1500   74 75  310/ 14/ 16 1014.7    1/ 3
YORK RVR RNG VA  1448   75     320/ 11/ 13 1015.1F
YORKTOWN VA      1448   74 76  310/ 10/ 12 1014.6F
JAMESTOWN VA     1500      77  310/  6/  8   N/A     0
DOMINION TERM VA 1448   74     300/ 11/ 13 1015.2R
KIPTOPEKE VA     1448      74  310/ 14/ 15   N/A
CHES BAY BRIDGE  1448   74 74  300/ 10/ 12 1014.4F
CAPE HENRY VA    1448   75     300/  9/ 13   N/A
WILLOUBY STN VA  1448   74     270/  9/ 10 1014.8F
S CRANEY ISL VA  1448   76     300/  6/ 11 1014.8R
CAPE HENRY BUOY  1430      74                N/A     5/10   3/12
1ST LANDING BUOY 1500   74 74              1014.2    3/ 5
64NM E OF VA BCH 1450   70 69  290/ 14/ 16 1013.6S  10/11   8/11
DUCK PIER NC     1448   76 74  300/  9/ 11 1014.3F
44100 DUCK FRF   1435      74                N/A     7/11   3/11
44056 DUCK FRF   1430      75                N/A     6/10   3/11
OREGON INLET NC  1436   76 73  290/  7/ 10 1014.7F
HATTERAS NC      1448   75 74  300/ 12/ 13 1015.4F
DIAMOND SHLS NC  1450   76 74  290/ 12/ 14 1015.0F   6/11   5/11
CAPE LOOKOUT NC  1500   79     280/  9/ 10 1015.7F
$$



USA.gov is the U.S. government's official web portal to all federal, state and local government web resources and services.